GFSSE_con_mlcape_057.txt.gz
CAPE
1196 1714 1730 1785 1702 1650 1683 1816 1377 1213 1119 1311 1220 1185 565 1420 1561 1461 1605 1676 1816 1340 1189 1435 960 1136 1358 1051 925 1105 537 603 670 193 705 604 569 412 443 203 154 70 84
1263 1853 1821 1803 1841 1834 1710 1779 1469 1188 1320 1426 1320 1193 1372 1311 1322 1496 1392 1503 1488 1469 1169 1540 1489 1435 1409 1267 808 576 459 794 658 502 564 438 517 469 535 154 461 74 237
1374 1838 1987 2071 2101 1842 1729 1725 1577 1331 1347 1411 1516 1132 1480 1078 1263 679 841 1430 1450 1584 1517 1446 1306 1184 1384 1025 809 128 785 913 554 742 71 202 584 427 300 817 824 0 259
1383 1606 1894 1920 1917 1934 1687 1708 1629 1420 1286 1322 1382 1335 1208 1568 1437 1431 950 270 830 1149 1363 1399 1488 1288 1059 886 541 415 572 651 396 653 326 18 298 578 714 31 0 340 627
1396 1686 1955 1889 1754 1605 1625 1698 1624 1520 1201 1150 1241 1364 1461 1449 1473 1574 1208 582 403 329 966 1300 1331 931 706 1154 460 420 219 304 388 399 454 0 168 552 659 144 503 610 488
1601 1711 1962 1891 1947 1840 1734 1706 1604 1568 1426 1391 1397 1450 1567 1540 1653 1656 1458 1334 1329 647 598 999 1349 894 1081 1125 592 473 284 170 383 542 178 110 5 313 795 113 383 555 102
1190 1885 1932 2057 2007 1971 1909 1939 1869 1538 1454 1647 1723 1738 1741 1611 1702 1691 1774 1487 1434 1316 798 895 840 1259 1258 1214 469 384 524 677 623 567 229 122 109 354 476 144 143 281 97
701 1518 1783 1869 1958 2031 1987 1845 1811 1789 1669 1822 1772 1660 1621 1479 1529 1576 1715 1679 1510 1249 1411 504 778 1186 1289 1381 844 468 504 564 759 686 215 46 145 54 197 94 8 471 193
1221 1171 1379 1682 1901 1970 1914 1811 1821 1876 1916 1920 1963 1883 1769 1567 1495 1432 1507 1269 1201 1048 1176 1344 675 868 1195 1330 903 726 512 528 681 606 196 52 0 0 0 92 0 472 0
1447 1036 1055 1348 1407 1592 1845 1879 1891 1917 1745 1785 1974 2035 1973 1933 1674 1668 1677 1341 943 1042 877 922 1019 1153 771 1146 973 602 458 411 187 272 247 2 0 232 204 471 337 41 574
1646 1490 1578 1510 1467 1581 1554 1656 1539 1574 1852 1749 1562 1766 1727 1652 1368 1145 1128 1115 960 820 870 895 1039 1103 989 219 1375 795 468 113 0 167 334 50 0 79 612 446 573 119 45
1448 1642 1832 1517 1496 1800 1964 1754 1307 1441 1044 1727 1553 1317 1321 986 1100 994 1140 1089 1320 1131 1188 971 773 911 1089 446 1100 977 400 13 0 151 164 14 1 12 261 213 480 212 0
1639 1760 1855 1807 1783 1563 1751 1752 1342 1588 1262 1063 1237 1484 1297 1097 891 740 1042 688 850 1084 801 1030 956 861 821 692 502 423 381 252 395 389 461 229 83 48 337 335 389 476 207
1822 1785 1859 2016 1991 1302 226 0 897 1242 1159 806 1086 1113 872 721 650 651 739 412 619 578 622 236 126 97 285 526 518 422 276 92 110 201 436 416 79 107 415 611 326 416 540
1614 1750 1860 1874 1961 1278 1018 908 432 142 536 75 301 369 161 364 354 488 447 491 297 39 381 196 21 0 0 109 567 605 525 429 320 296 368 494 235 182 249 592 624 634 636
1457 1611 1704 1896 1969 1862 1596 1007 684 434 808 584 472 125 1 450 545 388 258 96 8 203 66 57 0 1 42 68 347 539 327 485 559 468 479 621 431 368 113 306 578 757 945
1494 1723 1745 2001 2060 1901 1872 1723 1235 851 741 343 192 176 395 381 267 160 162 163 50 164 7 0 1 0 2 65 531 840 679 572 546 527 655 346 576 547 242 140 493 638 590
1747 2128 2245 2257 2154 2007 1942 1749 1298 399 279 156 25 16 43 333 150 149 132 56 67 112 22 32 13 0 0 98 457 540 812 710 738 830 745 805 746 655 445 218 223 384 805
1854 2268 2466 2425 2100 1887 1810 1484 1049 424 160 78 0 3 0 49 93 101 73 65 89 0 0 8 125 138 236 264 350 397 451 433 894 977 939 715 955 817 747 458 317 254 230
2154 2510 2466 2389 2157 1929 1675 1582 1035 277 144 169 72 10 20 1 45 88 81 46 72 76 8 0 58 167 97 2 176 173 181 211 329 517 518 841 888 725 748 715 658 472 273
2559 2669 2573 2603 2274 1739 1561 1734 1210 219 39 55 2 59 14 78 70 71 239 170 272 241 355 354 146 0 61 131 213 198 220 364 466 376 496 657 778 862 797 714 578 451 338
2929 2898 2952 2847 2441 1974 1739 1808 1180 326 34 30 30 77 83 38 506 444 419 335 346 386 218 215 105 41 31 116 141 195 125 100 220 249 306 486 476 523 506 567 468 274 209
3012 3227 3176 2827 2479 2243 2179 1412 794 415 126 161 386 598 1101 1333 1080 642 428 388 394 352 274 293 219 167 155 129 190 129 83 17 40 155 313 364 324 312 339 263 212 125 40
3223 3563 3372 2933 2656 2270 1789 1066 446 146 243 463 719 1015 977 1114 791 808 374 228 149 141 117 168 186 60 73 67 44 75 45 34 24 22 97 229 141 167 265 106 39 33 4
3551 3799 3403 3102 2725 2380 2023 1272 1145 490 631 931 863 882 489 464 612 283 219 139 69 23 58 141 144 144 170 131 134 96 90 90 100 110 14 97 1 4 62 282 28 155 43
3882 3908 3391 3020 2456 2532 1181 1487 829 736 1183 1200 951 632 525 530 441 387 180 65 0 0 1 0 88 195 227 201 218 334 315 140 106 62 105 61 7 1 0 26 79 51 45

GFSSE_con_mlcape_060.txt.gz
CAPE
1288 1684 1899 1844 1834 1876 1754 1161 1018 983 1057 1030 1199 1292 1633 1628 1695 1659 1607 1606 1335 1288 1217 1082 1218 1527 1239 1119 1060 606 471 385 472 598 577 597 612 622 551 245 448 44 0
1300 1684 1907 1840 1830 1999 1988 1551 1270 1316 1221 1219 1145 1177 1449 1437 1490 1735 1631 1615 1371 1314 1660 1293 1329 1441 1288 932 886 449 609 615 676 743 622 525 342 308 127 142 0 0 0
1421 1715 1858 1805 1912 1998 1964 1690 1518 1557 1487 1333 1659 1573 1246 1427 1244 1436 1691 1769 1899 1624 1600 1513 1542 1480 1374 888 346 794 623 871 626 547 678 473 328 436 500 165 12 690 826
1481 1711 1901 2017 2032 1880 1922 1745 1602 1678 1722 1598 1655 1887 1418 1418 1247 886 1090 1416 1636 1583 1468 1544 1266 1318 1125 946 462 899 889 790 593 211 121 409 405 270 252 27 33 504 502
1367 1667 1927 2009 1941 1829 1903 1814 1665 1607 1638 1660 1454 1772 1915 1697 1773 1726 645 647 921 1391 1482 1573 1158 1339 865 1139 523 496 519 730 562 431 0 136 484 599 0 32 586 300 5
1276 1744 2101 1880 1875 1941 1923 1841 1680 1428 1481 1588 1606 1600 1594 1575 1785 1722 1611 1192 876 785 1220 1466 1059 836 738 1343 638 385 129 312 557 578 429 190 226 679 46 651 866 337 94
1391 1796 1990 2037 1969 1918 1845 1880 1814 1548 1586 1759 1768 1872 1908 1759 1702 1684 1813 1609 1653 926 963 1082 1575 886 1017 942 725 378 118 327 593 310 124 72 266 827 357 613 743 56 631
1185 1719 1957 1969 1915 1959 2039 1973 1784 1636 1706 1879 2040 1964 1929 1723 1707 1466 1578 1658 1524 1646 1041 1065 1045 1497 1423 986 683 509 120 168 764 690 181 140 292 745 441 248 315 357 0
1436 1504 1715 1796 1891 1954 1964 1879 1863 1790 1701 1805 1777 1915 1666 1645 1637 1667 1362 1243 1334 1142 1641 892 919 1224 1307 1198 736 499 294 239 740 501 244 91 134 215 532 273 274 640 0
921 1146 1178 1384 1555 1635 1703 1706 1577 1667 1778 1902 1916 1874 1858 1816 1743 1718 1485 1253 1049 883 914 1087 873 996 919 984 1005 588 30 101 344 186 267 55 0 63 347 5 425 241 105
1073 1083 1137 1175 1176 1069 1257 1514 1580 1562 1529 1486 1695 2159 1708 1678 1513 1534 1506 1079 1265 1099 911 805 949 1216 867 584 835 891 466 11 0 154 177 129 0 194 291 815 293 330 573
1132 1056 1228 1105 1101 1205 1585 1557 1470 1581 1694 1580 1403 1492 1575 1130 1019 1217 1283 987 1181 1290 1231 923 792 1044 1205 717 246 895 457 162 19 96 304 140 0 111 672 984 645 87 162
1529 1553 1611 1419 1411 1501 1680 1572 1274 1280 1239 1448 1679 1180 1204 1112 1026 1070 883 1022 892 1405 1036 1155 829 542 549 584 533 357 239 203 88 244 382 213 0 18 144 628 905 312 71
1633 1649 1729 1613 1678 1649 1715 1695 1346 1244 1297 1015 1108 1199 1136 949 571 549 733 522 478 585 456 101 79 37 28 0 43 266 452 218 13 269 321 533 195 147 389 570 882 686 371
1638 1736 1791 1879 1756 1336 976 551 469 859 1101 496 722 821 551 363 600 450 440 307 331 247 267 105 1 11 0 0 28 43 288 466 209 96 230 684 462 333 414 571 820 872 713
1753 1778 1883 2028 1843 1200 954 747 413 122 104 222 198 255 198 76 491 344 233 161 31 94 48 72 58 0 0 0 26 113 188 519 374 344 416 529 620 434 377 468 451 764 669
1689 1798 1860 1977 1921 1701 1309 1126 927 574 422 199 204 85 45 139 523 318 128 79 3 8 1 0 0 0 0 0 1 35 385 332 363 477 438 438 779 598 450 333 218 434 538
1504 1674 1772 2149 2002 1921 1636 1555 995 444 177 72 69 77 124 384 269 118 110 41 0 59 2 0 0 0 1 0 0 76 284 480 445 391 479 524 498 588 642 601 294 228 216
1688 1762 1925 2297 2126 1980 1645 1334 922 317 126 46 20 13 32 174 162 101 71 14 23 7 0 0 3 28 84 78 103 209 237 332 341 576 380 592 458 540 600 558 421 280 240
1949 2115 2256 2220 2065 1888 1674 1298 756 59 189 120 39 6 0 0 79 95 52 31 32 16 6 9 0 25 36 65 25 0 87 149 133 178 313 463 628 590 574 597 557 376 272
2307 2353 2421 2320 2114 1922 1673 1437 1018 43 43 47 13 22 41 23 84 76 52 93 170 165 117 70 55 62 0 0 51 63 45 110 166 236 206 222 284 557 453 507 361 362 274
2518 2515 2463 2347 2242 1728 1714 1751 1175 171 3 3 20 68 179 81 163 201 208 259 264 234 156 146 139 25 1 0 21 0 0 0 49 126 193 248 268 275 305 447 397 291 195
2664 2583 2613 2682 2502 2054 1818 1419 868 325 40 47 260 498 656 449 488 460 438 327 253 201 145 146 108 56 49 10 13 0 0 0 0 7 57 123 201 169 196 221 256 228 176
2811 2898 2960 2939 2614 2258 1725 1400 903 144 48 324 620 760 1019 910 650 492 311 203 142 108 100 93 99 43 5 0 4 24 9 4 0 0 0 2 60 140 116 84 100 134 60
3170 3192 3101 2749 2551 2254 1719 1221 721 116 499 803 766 763 453 544 421 270 198 97 51 28 31 56 68 55 70 78 22 11 0 14 30 42 10 33 2 1 36 58 44 61 9
3437 3368 3093 2675 2475 2259 1966 1283 1108 850 1129 1014 804 413 514 466 394 211 89 41 7 0 4 0 71 97 66 78 65 80 74 23 3 25 29 15 6 0 1 16 54 22 1

GFSSE_con_mlcape_063.txt.gz
CAPE
1180 1288 2012 2054 2125 1900 1348 1314 1732 1703 1954 1974 1982 1853 1719 1680 1755 1764 1710 1403 1477 1365 1310 1264 1308 1217 1201 985 802 590 592 411 1015 586 895 810 727 357 175 361 585 159 0
1422 1830 2059 2117 2297 2263 1605 1366 1580 1717 1815 1465 2073 2034 2039 1936 2011 2231 1954 1410 1512 1712 1176 1383 1310 1199 1250 1056 652 479 339 463 287 734 787 802 652 304 103 332 0 99 352
1427 1948 2037 2114 2378 2333 1830 1587 1629 1696 1853 1750 1782 1850 1906 1946 1989 1967 1855 1721 1483 1785 1602 1388 1390 1268 937 697 623 621 451 918 758 711 768 407 306 412 88 13 73 0 221
1507 1837 1971 2074 2248 2233 2019 1792 1780 1756 1834 1867 1856 1477 1789 1254 1409 2014 1978 1702 1788 1809 1547 1264 1557 1347 1004 548 926 740 971 866 748 908 336 325 523 604 105 157 847 563 13
1528 1832 1916 2153 2172 2091 2029 1927 2001 1861 1767 1702 1943 1832 1724 1835 1713 1082 1414 1672 1534 1659 1817 1411 1665 1098 1077 795 925 678 836 663 446 299 322 324 269 345 32 207 408 743 483
1575 1821 2325 2089 2012 2018 2024 2020 2009 1939 1591 1704 1820 1853 1688 1829 2017 1826 1299 1054 1133 1612 1627 1480 973 745 1346 940 670 388 147 348 698 226 90 445 404 0 64 636 555 0 533
1470 1949 2000 2018 2052 2096 2006 2015 2008 1797 1838 1776 1849 1840 1808 1868 1950 1687 1852 1687 1350 1060 1401 1250 1055 1156 1123 813 361 162 131 328 517 241 290 346 391 319 571 828 383 281 0
1657 1935 1935 2017 1884 1966 1980 2032 2061 1956 1990 2065 2048 2056 1836 1700 1270 1594 1683 1636 1791 1467 1124 1147 1383 1333 1160 792 269 240 254 374 481 228 247 108 517 712 467 1009 360 258 640
1763 1760 2054 2005 1967 2062 2127 2059 1982 1979 2137 2185 2165 2062 2000 1638 1636 1484 1593 1410 1706 1676 1228 848 936 1363 1181 1186 598 138 15 209 391 456 221 73 302 749 526 298 474 56 41
1460 1564 1598 1744 1868 1878 2001 2097 1926 1891 1908 2078 1997 1970 1751 1761 1646 1615 1370 1201 1292 1211 1764 1529 982 985 1078 1038 978 418 21 0 330 212 261 108 252 492 595 454 407 447 114
1119 1332 1504 1442 1704 1576 1427 1623 1764 1810 1979 2065 2078 2068 2003 1710 1638 1609 1569 1189 1326 1280 1115 1230 1341 1064 783 954 970 899 143 6 16 113 208 114 53 131 540 49 512 370 139
605 817 1098 1135 1188 1368 1513 1437 1548 1551 1678 1666 1731 1971 2008 1617 1382 1221 1356 1252 1218 1458 1317 1129 1166 1015 894 489 276 699 301 0 14 24 189 261 34 101 445 537 437 553 505
752 715 937 1013 1095 1042 1171 1321 1455 1250 1420 1501 1524 1316 1603 1248 1044 1242 1073 1035 999 1588 1223 1189 853 757 731 640 470 191 239 224 72 0 204 397 54 62 583 733 819 420 333
1136 960 1074 1165 1120 1156 1356 1414 1497 1047 1090 828 1177 1328 1092 1042 750 730 891 870 672 937 629 485 358 163 76 55 66 163 196 193 147 97 257 539 267 20 293 520 699 821 372
1466 1480 1457 1511 1379 1403 1419 1571 1420 1184 930 654 502 548 655 522 486 391 478 459 397 475 468 148 71 65 0 0 0 52 102 209 407 244 19 231 600 152 132 365 622 777 816
1540 1612 1592 1618 1558 1565 1399 1149 750 684 276 192 185 148 245 193 333 285 280 296 240 268 265 126 50 22 0 0 0 11 90 172 260 351 163 144 666 501 359 314 429 548 901
1514 1618 1676 1743 1774 1633 1252 818 453 271 367 119 145 111 129 82 112 206 135 141 95 78 31 10 1 0 0 0 0 0 60 263 345 356 344 271 362 718 526 407 257 226 678
1501 1671 1747 1853 1896 1597 1191 1096 830 509 290 191 121 84 66 40 238 232 114 53 49 40 16 0 0 0 0 0 0 0 103 247 371 418 311 367 360 579 657 595 419 308 295
1393 1662 1711 1825 1919 1760 1540 1038 731 171 155 131 99 49 25 195 194 124 77 19 12 24 31 10 0 0 0 58 41 89 156 220 267 453 316 366 366 438 543 660 339 375 206
1391 1639 1734 1933 1913 1679 1197 870 358 135 156 51 8 5 2 8 86 113 58 12 18 1 0 2 16 11 19 56 71 56 19 33 152 173 162 329 447 494 460 510 534 594 497
1527 1580 1762 1900 1942 1636 1451 1293 755 2 81 59 30 28 14 16 15 72 42 38 58 81 119 93 36 47 43 14 4 39 30 34 66 96 122 206 175 370 506 573 406 385 397
1611 1764 1837 1975 1776 1695 1639 1435 984 12 0 0 0 10 71 45 75 68 40 72 148 152 140 117 68 52 0 0 0 0 0 0 0 4 50 123 198 276 296 346 295 286 135
1895 1903 1987 1990 1805 1699 1507 1307 755 170 0 2 103 273 378 172 101 306 265 206 166 130 96 86 64 36 17 0 0 0 0 0 0 0 0 1 57 119 165 192 305 267 180
1981 2068 2041 1885 1764 1612 1487 1171 1036 400 0 27 296 547 845 603 476 428 279 159 104 45 32 41 57 20 0 0 0 0 0 0 0 0 0 0 0 25 58 105 117 106 34
2103 1932 1722 732 1204 1613 1428 1215 524 103 156 529 580 794 652 428 337 234 135 52 20 6 3 18 25 1 1 0 4 1 0 0 0 0 0 2 0 0 28 47 42 52 0
2390 1985 1632 545 1314 1625 1398 941 493 41 579 703 682 473 418 365 235 130 24 0 0 0 0 0 35 32 21 8 11 25 36 2 0 0 15 26 16 3 0 1 12 0 0

GFSSE_con_mlcape_069.txt.gz
CAPE
1241 1308 1895 1632 1844 1702 1756 1823 2120 2146 2125 1867 1208 1547 1625 1302 1383 1163 1371 1359 1385 1278 1384 1287 733 783 666 815 436 585 400 389 355 753 585 362 564 540 223 612 567 446 416
1316 1444 1833 1672 1763 1741 1696 1938 1816 2010 2183 2095 1863 1815 1641 1490 1428 1606 1645 1673 1515 1444 1535 1303 1240 1258 991 264 630 498 831 559 1012 730 338 197 517 675 388 0 0 32 107
1428 1606 1803 1799 1775 1867 1946 2109 2099 1948 1778 1785 1770 1752 1718 1729 1907 1640 1591 1483 1632 1311 1527 1452 1262 1255 789 254 349 307 220 888 901 951 865 21 19 254 0 397 0 0 505
1594 1717 1951 1867 1824 1815 1979 2020 1923 2237 2183 2191 2159 2066 2086 1867 1661 1806 1509 1759 1581 1588 1732 1463 1159 1016 522 287 352 684 552 817 729 851 46 2 0 0 0 85 582 511 27
1793 1800 2132 1927 1951 1904 1906 1937 1888 1972 2107 2094 2053 2068 2042 2060 1762 1703 1248 1401 1494 1640 1523 1581 1295 664 810 707 755 1080 976 1052 968 481 395 97 2 73 822 760 52 812 790
1760 1755 2155 2171 2404 1999 2052 2010 2012 2017 1975 1873 2000 1762 1571 1561 1873 1567 1602 1232 1275 1554 1366 1370 1020 864 1032 897 1090 997 998 757 459 337 481 350 38 4 668 581 331 28 734
1767 1819 2129 2301 2289 2288 2145 2061 2089 1921 1827 1949 1937 1969 2025 1869 1601 1353 1322 1394 1322 1474 1402 1463 901 1033 836 792 792 505 389 542 243 219 249 165 16 48 865 58 497 678 120
1667 1835 2177 2262 2345 2392 2209 1777 1791 1855 1818 1610 2144 1965 1938 2123 2061 1770 1803 1493 1166 1195 1310 925 883 1476 864 595 431 355 177 269 484 591 224 261 89 182 548 846 0 432 847
1767 1979 2246 2291 2396 2533 2395 2152 1927 2010 2097 2143 2167 2124 1850 2067 1868 1605 1786 1934 1681 1177 1092 1329 1106 1255 918 564 385 334 494 492 699 660 525 172 259 461 598 1152 222 156 103
1831 1928 2053 2268 2213 2209 2200 2374 2248 2079 2169 2237 2219 2147 2146 1987 1714 1678 1846 1690 1792 1800 1222 1073 1190 1435 1144 867 537 350 359 460 464 525 625 339 149 586 624 1129 367 490 581
1779 1861 1982 2026 2201 2359 2313 2196 2209 2164 2056 1773 2021 1882 1707 1450 1432 1516 1391 1251 1589 1377 1349 1125 708 1022 1453 1422 865 529 320 397 423 462 554 316 109 402 824 554 496 266 51
1191 1578 1773 1870 1881 2137 1840 2239 2274 2091 1869 1686 1571 1726 1584 1481 1671 1386 1540 1271 1349 1248 1211 1371 1191 625 948 617 562 793 230 282 283 495 564 277 173 459 795 728 510 560 170
1100 1243 1599 1777 1867 1759 1696 2056 1936 1840 1287 1137 1289 1525 1586 1630 1716 1572 1468 1399 1257 1446 879 855 844 754 897 838 530 349 455 377 174 305 504 326 361 508 731 792 626 454 701
970 945 1205 1547 1684 1731 1792 1607 1676 1310 347 58 151 703 758 1338 1517 1567 1277 1543 1612 1436 1473 1207 846 888 926 909 805 853 422 289 188 255 244 241 485 468 414 667 622 402 776
949 915 973 1267 1255 1413 1436 1509 1412 1036 488 122 71 233 431 853 961 1270 874 904 1094 954 1444 1225 993 752 544 408 369 361 401 345 132 236 145 121 538 449 375 410 776 845 839
1255 1163 1153 1091 1207 1244 1204 1248 1246 1441 1098 636 105 167 142 296 258 458 766 616 876 1153 932 1088 465 555 643 323 73 43 127 342 421 390 139 105 196 494 494 369 522 953 1097
1669 1656 1609 1279 1296 1290 1359 1485 1417 1107 940 831 473 91 44 90 115 127 178 318 602 722 1027 1031 774 445 265 265 89 37 49 85 327 631 848 843 278 193 349 484 381 558 586
1884 1721 1897 1678 1682 1688 1684 1762 1589 1416 1079 806 398 176 35 54 91 96 115 171 535 687 690 691 573 213 188 199 98 87 87 80 134 534 758 863 553 473 503 521 449 463 463
1769 1739 1723 1842 2012 1904 1876 1743 1558 1077 676 448 331 307 156 148 43 54 159 225 340 317 275 252 187 126 131 121 120 136 91 8 135 533 919 1061 912 735 730 747 522 391 325
1569 1767 1796 1798 2055 1944 1749 1483 1166 637 356 346 396 371 310 237 221 186 136 210 259 217 215 194 163 192 148 112 178 308 459 307 450 676 343 373 713 1053 1062 1090 962 686 450
1332 1519 1526 1639 2025 1656 1366 1270 897 603 334 268 226 280 333 344 311 177 154 116 70 24 62 99 191 171 218 261 201 220 170 274 214 329 523 646 679 838 1055 1237 1414 707 716
1303 1500 1654 1329 1489 1354 1247 1328 1075 363 286 275 260 237 234 232 213 295 332 312 258 162 164 331 246 334 251 200 125 145 42 141 194 260 336 383 563 658 771 921 1069 1184 913
1622 924 497 218 420 679 928 1086 649 167 67 92 103 186 241 321 290 197 277 278 210 197 133 629 471 384 179 41 149 223 65 31 122 24 35 74 153 148 381 798 1013 1095 1052
923 678 216 6 0 159 170 344 942 635 224 108 176 578 763 581 386 444 508 462 463 666 526 444 483 416 355 250 203 177 30 61 23 33 18 1 52 50 77 130 241 279 442
1011 645 458 10 0 0 2 102 638 940 404 150 492 995 1283 1159 1094 964 861 472 532 366 319 335 335 250 270 217 215 171 164 212 189 132 51 40 3 1 1 148 115 160 184
871 359 235 0 0 0 10 133 514 981 672 347 504 988 1069 972 938 741 476 306 224 171 147 160 261 267 218 193 207 202 164 127 67 109 127 39 20 1 1 0 32 91 123

GFSSE_con_mlcape_072.txt.gz
CAPE
1152 1498 1761 1960 1865 2127 2396 2502 2362 2068 1607 1499 1439 1337 1690 1415 1533 1357 1141 1345 1498 1447 1139 742 675 767 844 711 692 608 488 415 588 639 707 681 425 509 848 360 2 6 321
1324 1524 1787 2034 1857 2015 2169 2473 2504 2110 1785 1611 1608 1960 1634 1436 1363 1384 1581 1363 1336 1344 1436 1328 1024 903 867 808 710 522 445 774 1021 358 283 649 714 158 241 11 332 436 1
1449 1621 1570 1992 2020 1950 2126 2033 2356 2500 2372 1994 2036 1932 1724 1606 1583 1616 1815 1627 1501 1350 1243 1338 1437 1214 474 538 569 934 783 1017 884 603 272 28 222 581 37 24 0 151 417
1561 1560 1611 1818 2104 2158 2270 2141 2001 1962 2157 2177 2107 1988 1762 1904 1856 1622 1659 1664 1398 1515 1459 1489 1515 920 511 475 488 397 994 976 1132 193 90 0 0 0 531 175 0 465 688
1578 1564 2061 1842 2013 2224 2253 2093 2292 2253 2291 2279 2193 2158 1824 1897 1952 1836 1569 1849 1605 1674 1492 1375 1099 678 453 500 904 698 986 1033 735 378 17 7 0 79 34 392 816 213 223
1619 1836 1886 1921 2046 2138 2099 1997 1911 2210 2247 2205 2136 2032 2031 2030 1866 1583 1525 1429 1573 1554 1603 1472 1086 830 870 1104 1152 1137 967 890 362 100 21 1 9 551 943 37 313 888 622
1661 1906 2011 2151 2159 2153 2150 2028 2104 2216 2185 2114 2154 1821 1683 1719 1584 1583 1597 1314 1210 1572 1409 1232 1096 809 1255 1067 1053 1063 698 526 203 60 83 6 17 118 602 770 351 252 684
1619 1785 2011 2136 2147 2170 2136 2106 2079 2014 2096 2059 2078 2056 2098 1824 1636 1496 1384 1308 1339 1486 1220 1230 1149 952 917 932 657 481 385 565 210 160 84 88 76 29 994 96 256 791 107
1555 1577 1989 2120 2265 2398 2201 2165 2181 2000 1916 2085 2216 2096 1945 2106 1534 1568 1964 1667 1328 1156 1177 924 1033 1369 869 622 577 401 349 301 772 242 86 37 14 127 644 863 0 188 922
1520 1585 1870 2044 2131 2167 2119 2202 2166 1839 1549 1555 1909 1634 1634 1687 1391 1566 1794 1568 1831 1370 1215 1305 1177 1306 878 663 543 493 620 535 530 161 241 227 26 261 566 1376 313 516 13
1568 1533 1560 1780 1985 1980 1878 2199 2046 1947 2067 1965 1987 1991 1346 1205 1337 1111 1146 1067 1652 1566 1427 1076 1159 1440 1200 928 682 526 470 334 349 250 114 324 92 342 755 1114 704 184 587
1345 1472 1489 1483 1538 1803 1416 1936 1865 1848 1582 1506 1588 1575 1408 1128 1350 1187 1074 917 1372 1328 1304 1103 910 1113 1141 261 196 404 150 188 217 192 179 350 73 383 875 837 572 533 202
1311 1416 1602 1635 1534 1389 1143 1311 1611 1827 1975 1769 1722 1632 1398 1414 1223 947 857 926 693 913 743 556 633 409 457 329 187 146 9 322 211 309 484 419 232 377 768 1051 818 502 647
1484 1461 1611 1738 1735 1532 1409 1230 1192 1476 1669 506 130 864 1072 1260 1267 988 798 640 978 1037 811 804 572 903 946 810 657 564 187 133 170 250 555 398 364 514 744 932 1029 811 440
1575 1585 1470 1755 1934 1804 1753 1365 1238 1220 786 269 69 123 239 355 729 962 841 994 931 1405 1381 653 569 778 707 793 716 736 660 190 22 178 385 325 210 435 595 806 782 936 555
1598 1666 1606 1695 1979 1952 1819 1776 1646 1337 1133 1111 179 45 174 212 611 624 591 912 1039 1134 1014 948 486 523 669 575 688 428 346 431 205 73 121 326 139 73 376 527 480 742 903
1841 1804 1891 1926 1949 2080 2078 2107 1929 1703 1823 1578 975 159 26 172 74 423 592 842 758 961 977 1116 1074 819 693 717 677 250 139 259 439 294 253 175 273 86 198 354 396 460 668
2030 2229 2269 2091 1971 2201 2319 1961 2089 2059 1911 1383 1289 1014 109 66 63 162 316 320 479 846 859 1188 1163 938 623 327 492 505 170 185 231 418 600 643 678 604 238 201 351 371 381
2169 2438 2622 2595 2408 2600 1529 1727 2198 2392 2148 1344 661 613 351 221 57 69 251 96 124 264 843 840 632 579 414 346 267 226 230 264 255 226 390 749 904 761 398 622 451 418 409
2087 2561 2759 2738 2730 2963 2127 2748 2431 2145 1475 630 488 609 914 192 189 87 63 88 268 420 501 463 410 420 325 310 354 184 372 396 116 93 454 950 1009 172 648 713 1064 875 445
1957 2356 2678 2689 2907 2523 2211 1495 1143 1275 1162 471 348 659 780 810 184 299 213 125 104 153 371 451 479 405 383 481 443 441 498 665 641 533 577 822 418 799 987 1160 1281 1281 847
1854 2331 2575 2048 1591 1483 639 2 1626 1673 838 441 386 473 604 699 721 292 109 111 132 142 96 141 192 262 444 685 606 540 428 311 490 492 671 792 799 848 868 1119 1086 999 1377
1938 2160 1307 1128 675 639 418 1227 1404 904 570 431 228 479 497 498 655 638 499 336 519 348 472 408 852 724 594 766 575 521 361 178 273 589 464 481 604 573 657 711 950 940 1061
2480 1279 240 176 455 632 1120 1440 1433 1124 1252 645 219 253 608 648 616 533 519 634 755 222 557 541 708 818 772 465 507 475 450 421 138 180 117 187 146 252 332 413 599 780 997
1478 367 196 0 0 30 540 407 634 719 1411 1163 455 455 1277 1212 1037 852 959 815 817 927 707 712 662 662 426 259 148 141 218 200 155 37 45 209 86 1 8 339 217 645 758
1041 581 41 0 4 89 49 424 865 1004 1417 1383 655 652 950 942 1071 1065 894 873 647 535 481 403 388 506 616 520 385 296 209 163 121 131 117 396 250 2 1 1 36 246 449